Theta_e
308 307 307 308 307 307 306 308 308 308 308 308 308 308 308 308 309 309 310 309 311 313 312 312 314 314 317 317 317 316 320 319 319 318 318 315 316 314 313 313 313 314 315 316 318
308 308 307 307 307 307 307 306 308 308 307 307 307 308 308 308 309 309 308 309 311 312 313 315 315 315 316 317 317 320 320 319 317 317 317 315 314 314 314 314 314 313 314 316 317
308 308 308 307 307 307 307 306 306 306 306 308 308 308 308 309 310 310 308 309 309 311 312 312 311 315 316 316 315 317 319 316 315 315 315 314 314 314 314 315 314 314 314 316 317
309 307 309 308 307 307 307 307 307 308 309 309 308 308 309 310 315 308 308 308 309 310 311 313 314 316 317 316 314 315 314 315 315 313 314 314 313 313 313 313 312 313 313 316 316
310 308 308 308 308 307 307 308 308 308 309 308 309 308 308 312 311 308 308 308 309 310 310 314 314 316 317 314 315 315 314 313 312 313 313 313 314 314 313 311 311 312 313 315 316
310 309 308 308 308 307 307 307 308 308 309 310 310 309 312 314 310 309 310 309 310 311 311 314 314 315 315 315 316 314 314 314 314 313 313 313 313 311 311 312 312 312 313 313 314
310 310 308 308 308 307 308 308 309 309 309 309 309 311 312 310 311 310 311 310 310 311 310 311 311 316 314 315 313 314 316 315 312 312 313 311 312 312 310 310 312 311 312 313 315
312 310 309 308 308 308 308 308 308 309 309 309 310 313 312 310 310 311 311 312 311 310 309 309 311 312 314 311 311 314 315 318 312 312 312 312 316 311 310 310 311 311 312 314 314
314 312 311 308 308 307 308 307 308 310 310 311 311 314 313 311 311 311 311 312 312 312 310 310 311 314 314 317 317 317 319 317 315 311 312 314 316 312 310 310 311 310 312 314 313
316 313 311 309 308 307 307 308 310 310 310 311 311 315 311 311 310 311 311 311 312 312 314 315 316 318 318 320 323 318 318 317 316 313 312 314 315 312 310 311 311 311 313 314 313
316 314 313 312 308 309 310 310 313 315 311 310 310 311 310 310 310 311 311 311 313 315 318 315 320 318 315 314 313 314 315 315 315 310 312 315 313 311 311 311 312 312 313 311 309
316 316 314 312 311 309 309 309 310 313 312 310 310 310 310 310 312 311 312 315 316 317 315 319 318 313 312 312 312 313 314 316 314 311 312 314 313 311 311 310 311 312 312 309 309
317 316 314 312 311 311 309 309 311 312 317 311 310 310 309 310 310 310 311 312 315 317 317 319 314 311 312 314 315 313 313 312 312 312 312 311 315 312 310 311 311 311 309 309 310
315 317 315 314 312 310 309 310 311 311 321 316 313 311 310 309 312 310 310 311 314 315 315 315 311 312 312 314 312 316 310 310 312 313 318 312 319 314 312 312 311 310 309 310 309
314 317 317 314 312 310 310 310 312 312 340 315 313 310 310 312 310 311 310 313 315 313 315 316 314 313 315 312 311 313 309 310 310 313 313 314 315 314 311 313 312 311 311 311 309
313 315 316 314 311 311 310 309 311 322 336 315 312 312 314 313 312 311 312 311 311 314 314 312 311 312 311 310 309 309 311 312 312 314 320 315 313 313 314 312 311 311 310 310 308
311 314 316 316 313 309 309 311 322 330 313 315 314 312 315 314 314 312 313 313 316 323 321 314 312 310 308 312 310 312 314 323 323 324 319 311 311 312 310 308 308 308 310 309 306
308 313 316 316 313 310 313 319 331 318 315 310 311 312 317 313 313 313 314 316 312 313 320 320 324 311 309 310 311 311 312 322 319 319 316 310 312 312 308 308 308 307 309 308 305
306 312 316 316 315 314 316 324 325 316 312 313 312 316 316 314 313 315 313 313 310 310 317 317 318 308 308 308 308 312 314 309 311 312 313 314 312 308 307 308 308 308 307 306 305
306 312 315 316 315 312 318 318 313 309 310 310 317 314 320 317 318 317 314 309 310 308 307 310 317 309 307 308 308 309 308 313 313 317 316 314 313 312 309 308 308 306 305 305 301
307 317 315 316 314 315 323 317 310 307 308 311 315 315 316 317 316 316 313 309 308 308 308 309 311 313 309 311 311 311 312 309 310 312 315 314 313 308 308 306 306 306 305 302 300
311 317 315 316 317 313 316 311 307 308 308 309 311 313 316 315 317 316 314 311 307 308 311 308 312 315 316 307 306 307 309 310 314 315 312 311 312 306 305 305 305 304 302 300 297
316 318 315 316 320 317 309 310 309 309 309 310 312 311 310 314 317 314 312 307 307 308 311 311 314 318 318 308 306 308 308 308 309 309 312 314 313 305 305 304 303 301 300 298 296
313 318 317 313 313 316 313 313 311 307 308 309 310 309 312 314 312 315 313 307 306 307 304 306 313 315 318 317 314 313 313 311 309 311 311 311 311 310 308 306 303 300 298 297 296
313 315 315 320 316 315 315 314 314 312 309 308 310 312 315 317 315 315 313 308 306 305 306 305 311 312 312 311 310 310 311 311 311 311 310 310 309 309 308 302 299 297 297 296 294
314 313 312 312 311 314 313 315 316 313 311 311 311 313 313 318 318 319 316 313 314 307 306 305 310 306 307 308 308 310 309 309 310 309 309 309 309 307 299 298 298 297 296 295 293
307 312 314 310 314 318 319 317 316 314 311 312 312 313 313 314 312 309 310 308 309 310 307 305 306 305 311 304 304 309 308 307 307 306 306 306 304 299 300 299 298 296 295 293 290
Wind_Speed
11 8 7 8 8 7 6 8 8 6 6 6 6 8 12 15 12 7 11 9 7 6 5 5 4 3 4 4 5 3 3 3 2 2 5 3 1 1 2 4 1 2 4 3 6
10 8 6 5 6 7 6 5 5 3 1 1 1 2 4 7 10 15 11 8 5 4 5 3 1 2 2 3 4 4 2 4 5 6 4 3 2 2 3 2 4 2 1 3 5
11 7 6 4 4 5 5 3 3 3 3 3 2 3 3 2 3 9 10 8 5 3 3 2 3 3 4 4 6 5 4 6 4 5 3 2 2 3 5 2 7 8 2 4 4
12 7 5 4 3 4 4 4 3 4 2 3 4 4 3 2 1 8 8 8 8 4 3 3 0 1 3 4 3 5 5 3 3 3 2 1 3 3 4 7 8 7 4 5 5
14 8 5 3 4 4 5 6 4 2 3 3 4 5 5 6 5 6 8 8 9 6 3 4 3 3 4 6 9 9 5 5 4 3 1 3 2 4 4 9 5 3 2 5 4
13 10 6 4 4 5 6 5 7 8 12 13 9 4 3 3 7 7 8 8 7 9 8 6 6 7 8 4 2 6 7 6 2 2 1 4 2 3 7 7 2 2 2 2 4
14 11 6 5 4 5 7 13 14 9 2 3 1 9 14 6 8 6 7 8 8 9 11 10 6 1 5 6 5 8 6 5 3 4 1 4 5 5 5 7 3 2 3 4 4
16 10 6 3 4 5 9 8 3 1 3 2 4 9 5 9 7 5 4 7 7 7 9 8 10 9 5 7 4 3 3 3 4 6 0 6 5 4 8 10 7 1 3 5 7
18 11 8 3 2 6 6 5 3 3 2 2 2 4 3 8 7 5 5 3 6 6 7 5 7 5 2 3 4 3 4 4 4 4 4 5 8 4 10 7 3 4 5 7 7
18 13 6 3 3 4 5 6 4 2 0 3 3 3 4 4 11 7 3 3 1 1 2 3 3 5 8 2 1 4 4 3 4 5 7 8 4 6 8 6 3 4 7 7 6
19 15 7 5 2 11 11 3 2 2 9 6 3 3 5 4 9 9 2 4 3 2 1 5 5 6 7 7 3 1 3 6 6 2 10 1 5 3 5 5 3 5 7 6 6
18 17 11 2 4 9 6 1 1 9 8 8 8 5 6 8 3 13 5 2 4 3 1 2 5 4 3 5 3 1 4 7 5 2 7 4 7 4 3 4 2 4 5 6 6
16 19 12 2 1 7 11 7 8 8 1 2 5 4 4 6 6 12 7 3 5 7 7 3 5 2 3 4 6 0 5 8 7 13 4 9 5 9 5 4 4 4 5 5 5
15 15 15 5 1 1 3 8 8 2 3 2 1 4 5 2 2 12 7 2 3 4 4 5 3 1 1 3 6 4 4 8 10 7 3 4 3 8 8 6 5 7 6 6 5
14 13 16 8 2 3 6 8 3 2 3 3 2 1 5 3 2 7 11 4 5 4 2 3 1 1 1 4 5 4 9 6 5 5 6 4 4 7 6 6 7 7 7 6 5
12 12 12 9 4 3 11 5 2 2 6 2 1 4 2 5 3 4 4 6 3 2 8 4 2 2 4 4 3 8 6 5 3 3 3 4 4 4 6 4 4 6 6 6 6
11 10 8 9 2 5 7 4 3 3 1 2 2 2 3 4 3 5 4 8 2 2 1 4 3 2 3 3 2 8 7 3 2 3 3 3 5 8 5 3 1 3 8 7 6
9 9 6 8 4 5 5 3 4 1 1 1 0 2 1 6 3 3 2 3 8 4 2 2 2 1 4 3 1 3 4 1 5 4 10 4 6 2 4 1 0 4 5 6 6
9 8 5 7 3 5 3 3 3 1 2 3 2 3 3 1 1 1 4 3 5 9 4 4 1 3 3 1 2 2 1 2 5 3 4 5 5 5 4 4 3 4 6 7 6
8 7 8 4 0 5 4 1 2 1 2 1 3 2 2 2 2 1 1 2 2 4 4 2 5 2 3 2 3 3 1 3 4 5 6 6 11 7 7 6 6 6 7 6 6
5 2 5 2 3 2 3 3 3 4 2 1 1 2 2 1 1 1 3 2 1 2 4 2 1 3 2 4 1 2 2 3 3 3 4 7 5 4 4 1 4 5 4 4 7
3 4 5 2 3 1 3 4 4 6 3 2 1 2 0 2 2 2 2 3 3 1 2 3 3 4 5 3 2 3 4 5 3 2 5 3 9 4 4 2 2 2 4 7 9
3 4 5 5 4 4 4 3 3 5 5 5 3 1 1 2 1 2 3 3 5 3 1 2 2 5 3 3 2 3 4 5 5 4 12 8 5 4 3 4 3 8 12 11 11
2 3 3 4 4 4 6 5 5 2 4 3 3 3 4 3 0 4 5 4 6 4 2 1 3 8 8 13 8 11 14 11 9 6 11 18 23 19 14 8 9 9 7 10 13
4 3 3 3 5 5 5 10 8 6 3 7 3 7 5 4 3 3 4 5 6 5 4 2 6 9 17 15 13 15 19 18 18 19 12 24 21 20 18 9 5 6 8 12 15
5 4 4 1 2 8 6 9 10 6 9 6 5 10 9 6 6 4 7 5 5 8 6 4 3 2 5 16 16 19 22 19 18 20 21 24 24 15 3 2 6 9 11 15 15
12 8 3 4 5 6 5 8 11 11 6 1 9 6 10 8 3 2 2 3 3 5 9 5 3 2 4 1 8 13 12 11 10 8 9 11 6 3 5 7 9 10 13 13 12
Wind_Direction
57 64 80 104 112 113 117 132 142 123 102 89 84 86 80 68 59 52 49 25 38 56 55 55 69 59 55 49 36 337 241 157 95 165 100 119 244 28 329 295 314 347 346 52 160
51 57 64 91 114 118 116 130 148 153 118 30 82 138 99 68 60 41 32 25 30 38 51 47 113 36 80 35 11 346 284 56 25 47 100 116 319 9 297 219 260 258 19 158 169
44 54 61 77 105 116 111 117 135 142 130 64 34 190 183 37 74 13 16 27 36 57 82 98 89 63 70 46 14 23 55 122 85 64 36 38 312 340 322 310 31 347 346 176 156
32 51 62 78 91 102 102 100 99 107 81 45 59 85 151 86 12 351 19 29 36 61 64 66 204 154 83 67 34 113 71 58 104 54 40 7 330 292 353 359 319 324 327 179 181
26 42 59 54 108 116 118 115 114 82 86 75 66 83 93 79 25 13 27 33 37 42 100 103 100 102 106 102 85 92 106 87 94 68 2 321 294 342 20 350 2 356 139 186 192
27 28 34 80 102 127 130 121 116 107 103 83 70 110 52 75 14 27 34 42 61 67 75 88 91 97 94 86 47 120 123 116 114 72 48 321 321 266 29 3 23 102 141 169 180
17 28 36 76 103 128 128 127 118 114 97 28 7 91 62 51 26 38 46 56 70 69 78 89 116 111 123 114 108 136 122 142 77 350 108 335 175 101 12 3 40 79 127 141 150
18 16 30 46 122 133 151 154 150 126 130 21 68 78 80 39 42 28 52 57 76 79 79 83 91 81 61 117 136 193 227 223 80 359 91 313 116 115 358 338 310 224 145 134 122
18 11 17 48 123 153 160 171 160 117 87 43 89 110 77 33 20 40 49 94 94 78 71 73 68 81 121 206 176 176 359 0 142 52 330 356 324 103 4 353 336 224 166 141 128
18 15 3 10 136 153 145 130 89 247 309 41 51 120 40 347 13 18 30 57 160 52 40 41 72 108 44 293 86 337 344 351 328 28 341 303 271 10 4 9 44 137 148 149 126
14 14 7 1 154 142 134 138 9 53 78 78 36 74 32 13 35 2 42 53 31 56 69 30 81 77 56 37 46 344 302 304 335 76 330 349 305 36 4 33 92 125 137 126 140
9 14 12 349 206 191 197 262 246 145 94 71 62 50 32 35 4 12 60 30 43 70 342 131 80 51 44 16 350 323 321 353 330 159 322 290 305 134 75 70 80 145 133 151 161
4 11 15 345 352 229 244 253 160 140 114 56 37 27 4 44 38 359 30 29 37 57 50 38 70 49 301 4 343 138 354 338 306 316 233 281 205 187 146 129 123 100 147 170 171
359 3 10 18 344 80 194 167 158 170 229 83 70 359 4 76 59 20 22 45 53 79 47 65 66 335 305 10 334 281 21 318 305 316 307 336 292 187 167 162 177 167 177 187 182
349 357 7 14 328 167 165 160 151 123 305 65 60 12 40 58 335 10 30 43 56 75 254 91 93 354 305 0 338 5 327 314 306 272 307 185 258 108 165 193 189 191 186 191 199
341 353 357 11 29 137 161 172 156 218 251 118 25 343 189 42 50 351 50 58 100 108 60 87 91 8 4 322 289 317 297 267 262 253 245 114 315 258 168 149 157 181 205 204 214
331 345 343 5 25 122 155 148 209 223 115 122 53 29 80 31 56 25 66 54 35 86 83 156 134 113 1 280 220 305 285 304 257 216 296 122 285 284 123 134 241 227 208 209 222
324 327 327 354 42 154 144 228 242 17 114 74 109 95 85 352 50 30 143 103 46 346 54 322 212 4 9 43 320 353 343 354 295 294 305 138 239 120 102 92 247 207 205 202 226
314 312 288 335 30 149 187 213 306 60 57 171 173 218 133 133 309 183 48 68 35 9 8 347 181 131 56 5 301 64 238 13 284 267 281 229 219 176 168 160 153 173 191 217 240
308 297 264 308 264 153 239 187 186 123 122 219 242 287 184 83 219 347 106 56 100 17 349 43 294 74 111 199 76 323 66 237 196 304 300 267 278 277 184 198 216 223 229 237 251
295 274 234 293 143 205 240 136 147 152 119 271 161 148 91 123 2 88 78 117 97 64 21 2 292 130 198 199 2 196 209 225 291 252 281 307 289 24 81 302 289 240 236 249 270
247 236 215 202 176 220 165 144 144 161 153 152 155 91 228 166 145 117 98 64 134 94 37 60 331 282 299 95 324 275 277 269 272 230 239 263 275 98 114 95 342 321 283 284 290
246 254 222 197 226 181 141 125 181 157 177 173 151 328 234 169 200 141 138 136 171 187 143 124 149 305 192 160 151 247 198 255 288 286 251 256 268 149 165 202 241 284 295 282 289
258 242 209 204 224 195 161 173 158 178 151 154 119 140 168 180 220 164 174 165 192 209 193 180 231 237 259 291 309 267 261 246 235 246 262 245 274 276 287 278 330 315 280 287 301
224 218 218 209 197 193 182 165 153 173 200 180 156 220 199 178 186 220 173 162 195 198 170 217 239 245 258 275 280 269 271 268 256 247 249 272 279 287 305 345 329 302 297 303 309
232 200 187 200 174 172 180 199 181 161 165 185 215 181 201 219 219 221 195 196 220 175 185 194 253 352 275 261 266 274 264 262 257 259 259 267 276 300 56 335 296 302 309 311 311
225 221 191 154 186 208 203 177 188 164 196 134 194 163 212 245 279 81 123 97 150 178 186 170 213 169 262 348 310 271 261 240 223 241 246 257 293 42 288 298 309 305 307 308 312